Location: Carrières
(48.9495°N, 2.0407°E)
Time: 20:46:32
(UTC+00:00)

Courier 1B Rocket - Pass Details

Date: 16 April 2024
Orbit: 920 x 1201 km, 28.2° (Epoch: 25 May)

Event Time Altitude Azimuth Distance (km) Brightness Sun altitude
Rises 07:44:21 0° 231° (SW) 3,774 7.8 26.1°
Reaches altitude 10° 07:49:29 10° 199° (SSW) 2,745 7.4 27.0°
Maximum altitude 07:51:17 11° 183° (S) 2,634 7.5 27.2°
Drops below altitude 10° 07:53:05 10° 167° (SSE) 2,697 7.8 27.5°
Sets 07:57:58 0° 134° (SE) 3,589 8.9 28.3°
